Regional Weather Roundup
Issued by NWS Midland/Odessa, TX

Skip options and go directly to product.
Home | Oldest Version | Previous Version | Current Version | All | Graphics & Text | Save Text | Print | Product List | Glossary On

Skip product version selection by date and time.   
333
ASUS44 KMAF 231110
RWRMAF
MIDLAND AREA WEATHER ROUNDUP
NATIONAL WEATHER SERVICE MIDLAND TX
600 AM CDT SAT JUL 23 2016

...IN SOUTHWEST TEXAS AND SOUTHEAST NEW MEXICO...

CITY           SKY/WX    TMP DP  RH WIND       PRES   REMARKS
ALPINE         CLEAR     71  53  53 SW6       30.18R
ANDREWS        FAIR      74  56  53 S5        30.07S
ARTESIA        CLEAR     72  52  49 SE6       30.05S
BIG SPRING     CLEAR     74  60  60 SE7       30.07R
CARLSBAD       CLEAR     73  53  49 S8        30.02F
DRYDEN           N/A     75  61  61 E5        29.99S
FORT STOCKTON  CLEAR     76  57  51 S9        30.02S
GUAD PASS      CLEAR     73  51  46 NE7       30.19S
HOBBS          CLEAR     72  54  53 S10       30.09F
MARFA          CLEAR     60  50  69 N5        30.17S
MIDLAND AIRPK  CLEAR     78  57  49 SE3       30.06S
MIDLAND INTL   CLEAR     75  56  51 E5        30.05R
ODESSA         CLEAR     78  58  49 S6        30.06S
PECOS          CLEAR     73  55  53 E7        29.99S
PRESIDIO       NOT AVBL
SEMINOLE       CLEAR     72  55  56 S5        30.09S
SNYDER           N/A     73  59  61 S6        30.04S
WINK           CLEAR     74  56  53 E8        30.01S
$$
...OTHER STATIONS IN TEXAS...

CITY           SKY/WX    TMP DP  RH WIND       PRES   REMARKS
ABILENE        CLEAR     76  63  64 S7        30.01R
AMARILLO       CLEAR     70  54  56 S9        30.07S
AUSTIN         MOCLDY    76  73  91 CALM      29.99R
BROWNSVILLE    CLEAR     78  76  93 SE5       29.93R
CORPUS CHRISTI PTCLDY    78  75  90 CALM      29.95S
DALLAS FTW     CLEAR     83  68  60 SW10      29.95S
DEL RIO        CLEAR     82  70  66 E7        29.95S
EL PASO        PTCLDY    83  47  28 CALM      30.03S
HOUSTON INT    PTCLDY    78  74  87 CALM      29.98R
LUBBOCK        CLEAR     71  56  58 SE6       30.07R
SAN ANGELO     CLEAR     77  63  61 S5        30.01R
SAN ANTONIO    PTCLDY    78  73  84 S5        30.00F
WACO           CLEAR     79  71  76 S8        29.97R
WICHITA FALLS  NOT AVBL
$$
...OTHER LOCATIONS IN NEW MEXICO...

CITY           SKY/WX    TMP DP  RH WIND       PRES   REMARKS
ALAMAGORDO     PTCLDY    73  41  31 N6        30.07S
ALBUQUERQUE    PTCLDY    71  50  47 SE5       30.16F
CANNON AFB     CLEAR     72  52  49 W5        30.12R
CLOVIS         CLEAR     64  48  55 SW8       30.12R
HOLLOMAN AFB   CLOUDY    72  43  34 E6        30.05S
ROSWELL        CLEAR     70  47  43 SE3       30.05F
RUIDOSO          N/A     66  41  39 SW3       30.31S
SANTA FE       CLEAR     72  48  42 N12       30.22F
TRUTH OR CONSE CLEAR     77  49  37 NW8       30.10F
TUCUMCARI      CLEAR     75  48  38 SW8       30.07R
$$

USA.gov is the U.S. government's official web portal to all federal, state and local government web resources and services.